IMR71 LIRA-LIPZ

Flight info

Callsign IMR71
Flight time 1h 9m
Altitude 32000
Route SOVAN DCT AMTEL DCT NUKNI DCT SUKOM Q125 NIMUM Z43 OTGIG
Aircraft P180/L-SBDFGM3RWXY/LB1

Departure

Time 2026-05-07 17:46
Airport Ciampino–G. B. Pastine International Airport (LIRA)

Arrival

Time 2026-05-07 18:55
Airport Venice Marco Polo Airport (LIPZ)
Time Latitude Longitude Altitude Speed Heading
2026-05-07 17:08 41.79106 12.59642 415 ft 0 kts 244°
2026-05-07 17:32 41.79115 12.59666 420 ft 4 kts 261°
2026-05-07 17:32 41.79116 12.59682 421 ft 4 kts 316°
2026-05-07 17:33 41.79107 12.59689 421 ft 0 kts 339°
2026-05-07 17:35 41.79125 12.59680 413 ft 7 kts 338°
2026-05-07 17:35 41.79199 12.59635 412 ft 11 kts 326°
2026-05-07 17:36 41.79201 12.59632 413 ft 0 kts 326°
2026-05-07 17:36 41.79204 12.59630 414 ft 3 kts 326°
2026-05-07 17:37 41.79227 12.59610 409 ft 6 kts 328°
2026-05-07 17:37 41.79243 12.59597 411 ft 2 kts 341°
2026-05-07 17:37 41.79263 12.59614 411 ft 1 kts 51°
2026-05-07 17:37 41.79272 12.59641 411 ft 5 kts 86°
2026-05-07 17:38 41.79265 12.59673 412 ft 3 kts 115°
2026-05-07 17:38 41.79263 12.59686 408 ft 2 kts 91°
2026-05-07 17:38 41.79269 12.59708 412 ft 6 kts 58°
2026-05-07 17:38 41.79328 12.59696 410 ft 13 kts 333°
2026-05-07 17:39 41.79423 12.59633 406 ft 17 kts 332°
2026-05-07 17:39 41.79457 12.59610 404 ft 7 kts 333°
2026-05-07 17:39 41.79528 12.59562 400 ft 14 kts 332°
2026-05-07 17:39 41.79597 12.59515 397 ft 11 kts 333°
2026-05-07 17:40 41.79687 12.59453 394 ft 16 kts 333°
2026-05-07 17:40 41.79808 12.59370 389 ft 20 kts 332°
2026-05-07 17:40 41.79882 12.59319 387 ft 0 kts 333°
2026-05-07 17:40 41.79891 12.59313 387 ft 5 kts 333°
2026-05-07 17:41 41.79947 12.59274 384 ft 10 kts 333°
2026-05-07 17:41 41.80009 12.59231 380 ft 5 kts 332°
2026-05-07 17:41 41.80054 12.59198 378 ft 7 kts 332°
2026-05-07 17:41 41.80124 12.59147 375 ft 16 kts 335°
2026-05-07 17:42 41.80218 12.59086 369 ft 13 kts 333°
2026-05-07 17:42 41.80325 12.59013 363 ft 18 kts 330°
2026-05-07 17:42 41.80453 12.58925 358 ft 18 kts 333°
2026-05-07 17:42 41.80566 12.58846 356 ft 14 kts 332°
2026-05-07 17:43 41.80670 12.58776 351 ft 18 kts 334°
2026-05-07 17:43 41.80736 12.58785 356 ft 0 kts 54°
2026-05-07 17:44 41.80738 12.58788 350 ft 2 kts 54°
2026-05-07 17:44 41.80753 12.58821 354 ft 7 kts 63°
2026-05-07 17:45 41.80761 12.58900 356 ft 8 kts 111°
2026-05-07 17:45 41.80746 12.58924 352 ft 0 kts 144°
2026-05-07 17:45 41.80742 12.58928 352 ft 7 kts 148°
2026-05-07 17:45 41.80499 12.59096 360 ft 70 kts 153°
2026-05-07 17:46 41.79930 12.59489 390 ft 109 kts 153°
2026-05-07 17:46 41.79201 12.59959 619 ft 117 kts 154°
2026-05-07 17:46 41.78447 12.60419 1005 ft 120 kts 155°
2026-05-07 17:46 41.77689 12.60863 1432 ft 120 kts 155°
2026-05-07 17:47 41.76870 12.61366 1597 ft 140 kts 154°
2026-05-07 17:47 41.75919 12.61951 1649 ft 159 kts 154°
2026-05-07 17:47 41.74872 12.62590 2046 ft 165 kts 157°
2026-05-07 17:47 41.73753 12.62772 2617 ft 165 kts 188°
2026-05-07 17:48 41.72673 12.62265 3128 ft 167 kts 213°
2026-05-07 17:48 41.71868 12.61159 3658 ft 167 kts 239°
2026-05-07 17:48 41.71512 12.59690 4176 ft 167 kts 266°
2026-05-07 17:48 41.71676 12.58163 4689 ft 167 kts 293°
2026-05-07 17:49 41.72328 12.56890 5196 ft 167 kts 319°
2026-05-07 17:49 41.73231 12.55901 5683 ft 169 kts 313°
2026-05-07 17:49 41.73741 12.54491 6177 ft 171 kts 286°
2026-05-07 17:49 41.74069 12.52948 6652 ft 173 kts 288°
2026-05-07 17:50 41.74420 12.51403 7115 ft 174 kts 287°
2026-05-07 17:50 41.74752 12.49838 7569 ft 175 kts 287°
2026-05-07 17:50 41.75091 12.48263 8012 ft 177 kts 287°
2026-05-07 17:50 41.75425 12.46699 8438 ft 178 kts 287°
2026-05-07 17:51 41.75767 12.45101 8862 ft 179 kts 287°
2026-05-07 17:51 41.76113 12.43495 9276 ft 180 kts 287°
2026-05-07 17:51 41.76458 12.41874 9678 ft 181 kts 287°
2026-05-07 17:51 41.76808 12.40246 10076 ft 183 kts 287°
2026-05-07 17:52 41.77164 12.38609 10456 ft 184 kts 287°
2026-05-07 17:52 41.77523 12.36962 10829 ft 185 kts 287°
2026-05-07 17:52 41.77907 12.35315 11187 ft 185 kts 297°
2026-05-07 17:52 41.78838 12.34183 11547 ft 184 kts 334°
2026-05-07 17:53 41.80049 12.33617 11887 ft 185 kts 345°
2026-05-07 17:53 41.81296 12.33149 12229 ft 186 kts 343°
2026-05-07 17:53 41.82538 12.32631 12561 ft 187 kts 343°
2026-05-07 17:53 41.83785 12.32103 12886 ft 188 kts 343°
2026-05-07 17:54 41.85038 12.31570 13216 ft 190 kts 343°
2026-05-07 17:54 41.86299 12.31035 13513 ft 190 kts 343°
2026-05-07 17:54 41.87566 12.30500 13810 ft 191 kts 343°
2026-05-07 17:54 41.88840 12.29957 14109 ft 192 kts 343°
2026-05-07 17:55 41.90119 12.29416 14396 ft 193 kts 343°
2026-05-07 17:55 41.91408 12.28867 14749 ft 194 kts 342°
2026-05-07 17:55 41.92697 12.28320 15131 ft 195 kts 343°
2026-05-07 17:55 41.93998 12.27768 15488 ft 196 kts 342°
2026-05-07 17:56 41.95303 12.27211 15836 ft 198 kts 343°
2026-05-07 17:56 41.96617 12.26655 16173 ft 199 kts 342°
2026-05-07 17:56 41.97938 12.26091 16503 ft 200 kts 343°
2026-05-07 17:56 41.99268 12.25527 16828 ft 201 kts 343°
2026-05-07 17:57 42.00601 12.24957 17139 ft 202 kts 342°
2026-05-07 17:57 42.01508 12.24571 17345 ft 203 kts 343°
2026-05-07 17:57 42.03293 12.23812 17740 ft 204 kts 342°
2026-05-07 17:57 42.04650 12.23231 18029 ft 205 kts 343°
2026-05-07 17:58 42.06010 12.22653 18309 ft 206 kts 343°
2026-05-07 17:58 42.07380 12.22067 18584 ft 207 kts 342°
2026-05-07 17:58 42.08755 12.21480 18859 ft 208 kts 343°
2026-05-07 17:58 42.10135 12.20892 19125 ft 209 kts 342°
2026-05-07 17:59 42.11523 12.20296 19384 ft 210 kts 343°
2026-05-07 17:59 42.12917 12.19703 19644 ft 211 kts 343°
2026-05-07 17:59 42.14317 12.19102 19899 ft 211 kts 342°
2026-05-07 17:59 42.15722 12.18501 20149 ft 212 kts 343°
2026-05-07 18:00 42.17132 12.17899 20398 ft 213 kts 342°
2026-05-07 18:00 42.18549 12.17289 20641 ft 214 kts 343°
2026-05-07 18:00 42.19971 12.16682 20887 ft 215 kts 342°
2026-05-07 18:00 42.21400 12.16067 21132 ft 216 kts 342°
2026-05-07 18:01 42.22833 12.15454 21376 ft 217 kts 343°
2026-05-07 18:01 42.24273 12.14836 21619 ft 218 kts 342°
2026-05-07 18:01 42.25699 12.14222 21855 ft 218 kts 342°
2026-05-07 18:01 42.27149 12.13601 22101 ft 219 kts 342°
2026-05-07 18:02 42.30085 12.12344 22650 ft 217 kts 343°
2026-05-07 18:02 42.31513 12.11723 22963 ft 215 kts 343°
2026-05-07 18:02 42.32943 12.11107 23196 ft 216 kts 343°
2026-05-07 18:03 42.34383 12.10486 23437 ft 217 kts 343°
2026-05-07 18:03 42.35806 12.09874 23685 ft 218 kts 343°
2026-05-07 18:03 42.37251 12.09253 23937 ft 218 kts 343°
2026-05-07 18:03 42.38695 12.08629 24204 ft 218 kts 343°
2026-05-07 18:04 42.40137 12.08008 24473 ft 217 kts 343°
2026-05-07 18:04 42.41577 12.07386 24743 ft 217 kts 343°
2026-05-07 18:04 42.43011 12.06765 25023 ft 216 kts 343°
2026-05-07 18:04 42.44443 12.06148 25300 ft 216 kts 343°
2026-05-07 18:05 42.45869 12.05531 25581 ft 215 kts 343°
2026-05-07 18:05 42.47296 12.04913 25858 ft 215 kts 343°
2026-05-07 18:05 42.48719 12.04299 26130 ft 214 kts 343°
2026-05-07 18:05 42.50138 12.03682 26401 ft 214 kts 343°
2026-05-07 18:06 42.51559 12.03067 26695 ft 214 kts 343°
2026-05-07 18:06 42.52974 12.02454 26979 ft 213 kts 343°
2026-05-07 18:06 42.54386 12.01844 27275 ft 212 kts 343°
2026-05-07 18:06 42.55790 12.01234 27583 ft 212 kts 343°
2026-05-07 18:07 42.57192 12.00624 27881 ft 211 kts 343°
2026-05-07 18:07 42.58590 12.00017 28180 ft 211 kts 343°
2026-05-07 18:07 42.59986 11.99413 28483 ft 210 kts 342°
2026-05-07 18:07 42.61378 11.98807 28770 ft 210 kts 342°
2026-05-07 18:08 42.62769 11.98202 29063 ft 209 kts 342°
2026-05-07 18:08 42.64155 11.97599 29355 ft 209 kts 342°
2026-05-07 18:08 42.65539 11.96997 29652 ft 208 kts 342°
2026-05-07 18:08 42.66918 11.96396 29941 ft 208 kts 342°
2026-05-07 18:09 42.68293 11.95798 30247 ft 207 kts 342°
2026-05-07 18:09 42.69667 11.95202 30544 ft 207 kts 342°
2026-05-07 18:09 42.71032 11.94603 30842 ft 206 kts 342°
2026-05-07 18:09 42.72395 11.94010 31134 ft 205 kts 342°
2026-05-07 18:10 42.73738 11.93423 31419 ft 205 kts 342°
2026-05-07 18:10 42.75092 11.92832 31698 ft 204 kts 342°
2026-05-07 18:10 42.76441 11.92243 31983 ft 203 kts 342°
2026-05-07 18:10 42.77791 11.91652 32138 ft 208 kts 342°
2026-05-07 18:11 42.79210 11.91033 32130 ft 220 kts 342°
2026-05-07 18:11 42.80212 11.90596 32133 ft 227 kts 342°
2026-05-07 18:11 42.82262 11.89697 32109 ft 241 kts 342°
2026-05-07 18:11 42.83860 11.88891 32103 ft 249 kts 334°
2026-05-07 18:12 42.85404 11.87737 32110 ft 257 kts 332°
2026-05-07 18:12 42.87008 11.86580 32112 ft 264 kts 333°
2026-05-07 18:12 42.88656 11.85396 32109 ft 271 kts 332°
2026-05-07 18:12 42.90337 11.84161 32105 ft 278 kts 332°
2026-05-07 18:13 42.92057 11.82899 32101 ft 284 kts 332°
2026-05-07 18:13 42.93813 11.81616 32064 ft 290 kts 331°
2026-05-07 18:13 42.95610 11.80305 32019 ft 296 kts 330°
2026-05-07 18:14 42.99295 11.77599 31971 ft 305 kts 327°
2026-05-07 18:14 43.03079 11.74824 31969 ft 313 kts 326°
2026-05-07 18:15 43.06960 11.71972 31971 ft 320 kts 326°
2026-05-07 18:15 43.10923 11.69057 31976 ft 326 kts 326°
2026-05-07 18:16 43.14946 11.66091 31978 ft 331 kts 326°
2026-05-07 18:16 43.19013 11.63087 31970 ft 341 kts 326°
2026-05-07 18:16 43.21219 11.61759 31970 ft 353 kts 335°
2026-05-07 18:17 43.23628 11.60873 31972 ft 364 kts 344°
2026-05-07 18:17 43.28794 11.60284 31971 ft 378 kts 351°
2026-05-07 18:18 43.34101 11.59789 31972 ft 386 kts 351°
2026-05-07 18:18 43.39506 11.59327 31972 ft 391 kts 351°
2026-05-07 18:19 43.44962 11.58841 31968 ft 394 kts 351°
2026-05-07 18:19 43.50453 11.58357 31971 ft 397 kts 351°
2026-05-07 18:20 43.55970 11.57864 31971 ft 398 kts 351°
2026-05-07 18:20 43.61509 11.57379 31972 ft 400 kts 351°
2026-05-07 18:21 43.67061 11.56878 31970 ft 400 kts 351°
2026-05-07 18:21 43.72620 11.56394 31968 ft 401 kts 351°
2026-05-07 18:22 43.78184 11.55882 31969 ft 401 kts 351°
2026-05-07 18:22 43.83794 11.56224 31962 ft 408 kts
2026-05-07 18:23 43.89415 11.57022 31968 ft 406 kts
2026-05-07 18:23 43.95033 11.57892 31959 ft 406 kts
2026-05-07 18:24 44.00668 11.58728 31844 ft 410 kts
2026-05-07 18:24 44.03494 11.59154 31328 ft 401 kts
2026-05-07 18:24 44.06210 11.59537 30817 ft 386 kts
2026-05-07 18:24 44.08844 11.59967 30311 ft 376 kts
2026-05-07 18:25 44.10551 11.60236 29979 ft 371 kts
2026-05-07 18:25 44.13089 11.60596 29492 ft 363 kts
2026-05-07 18:25 44.15576 11.60952 29024 ft 356 kts
2026-05-07 18:25 44.18016 11.61329 28556 ft 350 kts
2026-05-07 18:26 44.21186 11.61813 27947 ft 342 kts
2026-05-07 18:26 44.23535 11.62157 27517 ft 337 kts
2026-05-07 18:26 44.25104 11.62399 27223 ft 334 kts
2026-05-07 18:26 44.27394 11.62748 26782 ft 330 kts
2026-05-07 18:27 44.29665 11.63087 26347 ft 326 kts
2026-05-07 18:27 44.31906 11.63423 25916 ft 322 kts
2026-05-07 18:27 44.34125 11.63763 25490 ft 319 kts
2026-05-07 18:27 44.36324 11.64099 25068 ft 316 kts
2026-05-07 18:28 44.38502 11.64426 24650 ft 313 kts
2026-05-07 18:28 44.40660 11.64751 24235 ft 311 kts
2026-05-07 18:28 44.42798 11.65078 23824 ft 308 kts
2026-05-07 18:28 44.44919 11.65400 23416 ft 305 kts
2026-05-07 18:29 44.47020 11.65720 23012 ft 303 kts
2026-05-07 18:29 44.49105 11.66035 22611 ft 300 kts
2026-05-07 18:29 44.51171 11.66351 22214 ft 297 kts
2026-05-07 18:29 44.53218 11.66662 21820 ft 295 kts
2026-05-07 18:30 44.55231 11.67141 21423 ft 295 kts 17°
2026-05-07 18:30 44.57001 11.68599 21038 ft 296 kts 33°
2026-05-07 18:30 44.58691 11.70223 20648 ft 293 kts 32°
2026-05-07 18:30 44.60377 11.71804 20261 ft 290 kts 32°
2026-05-07 18:31 44.62050 11.73374 19879 ft 288 kts 32°
2026-05-07 18:31 44.63705 11.74941 19493 ft 286 kts 32°
2026-05-07 18:31 44.65321 11.76478 19120 ft 283 kts 32°
2026-05-07 18:31 44.66952 11.78012 18744 ft 281 kts 32°
2026-05-07 18:32 44.68570 11.79541 18370 ft 279 kts 32°
2026-05-07 18:32 44.70173 11.81064 17999 ft 277 kts 32°
2026-05-07 18:32 44.71762 11.82572 17637 ft 275 kts 32°
2026-05-07 18:32 44.73343 11.84067 17277 ft 273 kts 32°
2026-05-07 18:33 44.74912 11.85555 16916 ft 271 kts 32°
2026-05-07 18:33 44.76468 11.87035 16556 ft 269 kts 32°
2026-05-07 18:33 44.78016 11.88505 16199 ft 267 kts 32°
2026-05-07 18:33 44.79553 11.89968 15844 ft 266 kts 32°
2026-05-07 18:34 44.81081 11.91418 15492 ft 264 kts 33°
2026-05-07 18:34 44.82600 11.92863 15132 ft 263 kts 33°
2026-05-07 18:34 44.84110 11.94305 14792 ft 261 kts 33°
2026-05-07 18:34 44.85612 11.95736 14445 ft 260 kts 33°
2026-05-07 18:35 44.87103 11.97154 14101 ft 258 kts 33°
2026-05-07 18:35 44.88590 11.98564 13758 ft 257 kts 33°
2026-05-07 18:35 44.90071 11.99962 13417 ft 256 kts 33°
2026-05-07 18:35 44.91544 12.01345 13074 ft 254 kts 32°
2026-05-07 18:36 44.93016 12.02724 12739 ft 253 kts 32°
2026-05-07 18:36 44.94481 12.04094 12404 ft 252 kts 32°
2026-05-07 18:36 44.95939 12.05453 12085 ft 250 kts 32°
2026-05-07 18:36 44.97387 12.06799 11762 ft 249 kts 32°
2026-05-07 18:37 44.98830 12.08135 11440 ft 248 kts 32°
2026-05-07 18:37 45.00271 12.09464 11123 ft 247 kts 32°
2026-05-07 18:37 45.01712 12.10790 10767 ft 247 kts 32°
2026-05-07 18:37 45.03139 12.12099 10517 ft 243 kts 32°
2026-05-07 18:38 45.04550 12.13388 10296 ft 239 kts 32°
2026-05-07 18:38 45.05975 12.14687 10109 ft 252 kts 32°
2026-05-07 18:38 45.07492 12.16058 9956 ft 265 kts 32°
2026-05-07 18:38 45.09183 12.17105 9843 ft 270 kts
2026-05-07 18:39 45.11065 12.17280 9757 ft 272 kts 358°
2026-05-07 18:39 45.12858 12.16541 9668 ft 272 kts 327°
2026-05-07 18:39 45.14252 12.14781 9605 ft 266 kts 306°
2026-05-07 18:39 45.15011 12.12442 9545 ft 260 kts 283°
2026-05-07 18:40 45.15084 12.09948 9475 ft 256 kts 261°
2026-05-07 18:40 45.14475 12.07577 9403 ft 253 kts 240°
2026-05-07 18:40 45.13580 12.05474 9347 ft 251 kts 239°
2026-05-07 18:40 45.12691 12.03316 9288 ft 250 kts 240°
2026-05-07 18:41 45.11623 12.01434 9213 ft 250 kts 221°
2026-05-07 18:41 45.10287 11.99869 9150 ft 249 kts 220°
2026-05-07 18:41 45.08983 11.98249 9085 ft 249 kts 222°
2026-05-07 18:41 45.07706 11.96599 9032 ft 249 kts 222°
2026-05-07 18:42 45.06415 11.94970 8970 ft 249 kts 221°
2026-05-07 18:42 45.05116 11.93351 8908 ft 249 kts 221°
2026-05-07 18:42 45.03821 11.91728 8849 ft 249 kts 221°
2026-05-07 18:42 45.02530 11.90101 8788 ft 248 kts 223°
2026-05-07 18:43 45.01532 11.88146 8697 ft 249 kts 250°
2026-05-07 18:43 45.01346 11.85718 8612 ft 251 kts 275°
2026-05-07 18:43 45.01982 11.83437 8524 ft 253 kts 304°
2026-05-07 18:43 45.03135 11.81555 8465 ft 253 kts 313°
2026-05-07 18:44 45.04575 11.80167 8376 ft 255 kts 341°
2026-05-07 18:44 45.06341 11.80030 8292 ft 257 kts
2026-05-07 18:44 45.07941 11.81104 8204 ft 258 kts 39°
2026-05-07 18:44 45.09270 11.82793 8151 ft 254 kts 42°
2026-05-07 18:45 45.10558 11.84441 8087 ft 246 kts 41°
2026-05-07 18:45 45.11828 11.86038 8011 ft 242 kts 41°
2026-05-07 18:45 45.13080 11.87606 7929 ft 239 kts 41°
2026-05-07 18:45 45.14317 11.89162 7838 ft 237 kts 41°
2026-05-07 18:46 45.15544 11.90713 7754 ft 236 kts 41°
2026-05-07 18:46 45.16759 11.92261 7665 ft 235 kts 42°
2026-05-07 18:46 45.17969 11.93813 7575 ft 234 kts 42°
2026-05-07 18:46 45.19164 11.95357 7483 ft 229 kts 42°
2026-05-07 18:47 45.20318 11.96856 7376 ft 222 kts 42°
2026-05-07 18:47 45.21439 11.98322 7255 ft 217 kts 43°
2026-05-07 18:47 45.22520 11.99747 7133 ft 214 kts 43°
2026-05-07 18:47 45.23598 12.01177 7004 ft 211 kts 43°
2026-05-07 18:48 45.24660 12.02596 6875 ft 207 kts 43°
2026-05-07 18:48 45.25675 12.03970 6682 ft 197 kts 43°
2026-05-07 18:48 45.26700 12.05322 6191 ft 205 kts 41°
2026-05-07 18:48 45.27840 12.06650 5571 ft 215 kts 37°
2026-05-07 18:49 45.28986 12.07909 5499 ft 196 kts 37°
2026-05-07 18:49 45.30037 12.09069 5524 ft 190 kts 38°
2026-05-07 18:49 45.31057 12.10239 5240 ft 192 kts 39°
2026-05-07 18:49 45.32077 12.11439 4667 ft 191 kts 39°
2026-05-07 18:50 45.33072 12.12613 4226 ft 181 kts 40°
2026-05-07 18:50 45.34001 12.13754 3894 ft 175 kts 41°
2026-05-07 18:50 45.34903 12.14908 3650 ft 173 kts 43°
2026-05-07 18:50 45.35749 12.16084 3411 ft 172 kts 45°
2026-05-07 18:51 45.36606 12.17260 3151 ft 170 kts 44°
2026-05-07 18:51 45.37429 12.18375 2845 ft 160 kts 44°
2026-05-07 18:51 45.38232 12.19466 2565 ft 160 kts 44°
2026-05-07 18:51 45.39036 12.20521 2395 ft 156 kts 44°
2026-05-07 18:52 45.39829 12.21554 2231 ft 154 kts 42°
2026-05-07 18:52 45.40630 12.22529 2150 ft 148 kts 41°
2026-05-07 18:52 45.41398 12.23461 2114 ft 145 kts 42°
2026-05-07 18:52 45.42182 12.24426 1846 ft 147 kts 42°
2026-05-07 18:53 45.42936 12.25381 1525 ft 144 kts 44°
2026-05-07 18:53 45.43661 12.26313 1367 ft 135 kts 43°
2026-05-07 18:53 45.44332 12.27213 1264 ft 129 kts 46°
2026-05-07 18:53 45.44994 12.28097 1197 ft 135 kts 44°
2026-05-07 18:54 45.45712 12.29039 1068 ft 144 kts 45°
2026-05-07 18:54 45.46453 12.30028 901 ft 149 kts 43°
2026-05-07 18:54 45.47222 12.30996 668 ft 147 kts 42°
2026-05-07 18:54 45.47991 12.31953 411 ft 147 kts 43°
2026-05-07 18:55 45.48740 12.32900 174 ft 131 kts 44°
2026-05-07 18:55 45.49361 12.33696 32 ft 115 kts 42°
2026-05-07 18:55 45.49862 12.34352 7 ft 75 kts 42°
2026-05-07 18:55 45.50054 12.34515 9 ft 8 kts 314°
2026-05-07 18:56 45.50052 12.34436 10 ft 0 kts 266°
2026-05-07 18:56 45.50052 12.34420 10 ft 0 kts 266°
2026-05-07 18:56 45.50052 12.34415 10 ft 2 kts 270°
2026-05-07 18:56 45.50051 12.34383 10 ft 5 kts 267°
2026-05-07 18:57 45.50058 12.34325 10 ft 8 kts 309°
2026-05-07 18:57 45.50111 12.34326 10 ft 10 kts 24°
2026-05-07 18:57 45.50168 12.34359 10 ft 10 kts
2026-05-07 18:57 45.50230 12.34354 11 ft 9 kts 337°
2026-05-07 18:58 45.50241 12.34290 10 ft 6 kts 248°
2026-05-07 18:58 45.50259 12.34240 10 ft 7 kts 313°
2026-05-07 18:58 45.50293 12.34186 10 ft 6 kts 313°
2026-05-07 18:58 45.50311 12.34159 10 ft 0 kts 313°